Time,TemperatureF,DewpointF,PressureIn,WindDirection,WindDirectionDegrees,WindSpeedMPH,WindSpeedGustMPH,Humidity,HourlyPrecipIn,Conditions,Clouds,dailyrainin,SoftwareType,DateUTC
2013-03-12 00:00:00,40.6,24.8,18.26,East,95,0.0,0.0,53,0.00,,,0.00,WUHU216WMR968SP,2013-03-12 04:00:00,
2013-03-12 00:05:00,40.3,24.5,18.26,SSE,164,0.0,0.0,53,0.00,,,0.00,WUHU216WMR968SP,2013-03-12 04:05:00,
2013-03-12 00:10:00,40.5,25.2,18.26,SSW,193,0.0,0.0,54,0.00,,,0.00,WUHU216WMR968SP,2013-03-12 04:10:00,
2013-03-12 00:15:00,41.0,25.6,18.26,SSE,153,0.0,0.0,54,0.00,,,0.00,WUHU216WMR968SP,2013-03-12 04:15:00,
2013-03-12 00:20:00,41.2,25.3,18.26,ESE,123,0.0,0.0,53,0.00,,,0.00,WUHU216WMR968SP,2013-03-12 04:20:00,
2013-03-12 00:25:00,41.4,25.5,18.26,SE,124,0.0,0.0,53,0.00,,,0.00,WUHU216WMR968SP,2013-03-12 04:25:00,
2013-03-12 00:30:00,41.2,25.3,18.26,SE,143,0.0,0.0,53,0.00,,,0.00,WUHU216WMR968SP,2013-03-12 04:30:00,
2013-03-12 00:35:00,40.6,24.8,18.26,SE,146,0.0,0.0,53,0.00,,,0.00,WUHU216WMR968SP,2013-03-12 04:35:00,
2013-03-12 00:40:00,40.3,24.5,18.26,SE,146,0.0,0.0,53,0.00,,,0.00,WUHU216WMR968SP,2013-03-12 04:40:00,
2013-03-12 00:45:00,39.9,24.6,18.26,SE,146,0.0,0.0,54,0.00,,,0.00,WUHU216WMR968SP,2013-03-12 04:45:00,
2013-03-12 00:50:00,39.9,25.1,18.26,ESE,122,0.0,0.0,55,0.00,,,0.00,WUHU216WMR968SP,2013-03-12 04:50:00,
2013-03-12 00:55:00,39.7,25.7,18.26,NNE,33,0.0,0.0,57,0.00,,,0.00,WUHU216WMR968SP,2013-03-12 04:55:00,
2013-03-12 01:00:00,40.3,27.2,18.26,ESE,119,0.0,2.2,59,0.00,,,0.00,WUHU216WMR968SP,2013-03-12 05:00:00,
2013-03-12 01:05:00,40.5,26.9,18.26,SE,144,0.0,2.2,58,0.00,,,0.00,WUHU216WMR968SP,2013-03-12 05:05:00,
2013-03-12 01:10:00,39.9,25.1,18.26,SE,143,0.0,0.0,55,0.00,,,0.00,WUHU216WMR968SP,2013-03-12 05:10:00,
2013-03-12 01:15:00,39.2,24.4,18.26,SE,137,0.0,0.0,55,0.00,,,0.00,WUHU216WMR968SP,2013-03-12 05:15:00,
2013-03-12 01:20:00,38.8,24.9,18.26,SE,136,0.0,0.0,57,0.00,,,0.00,WUHU216WMR968SP,2013-03-12 05:20:00,
2013-03-12 01:25:00,38.7,25.6,18.26,SE,136,0.0,0.0,59,0.00,,,0.00,WUHU216WMR968SP,2013-03-12 05:25:00,
2013-03-12 01:30:00,38.7,26.1,18.26,SE,136,0.0,0.0,60,0.00,,,0.00,WUHU216WMR968SP,2013-03-12 05:30:00,
2013-03-12 01:35:00,39.0,27.2,18.26,SE,137,0.0,0.0,62,0.00,,,0.00,WUHU216WMR968SP,2013-03-12 05:35:00,
2013-03-12 01:40:00,39.7,27.8,18.26,SE,136,0.0,0.0,62,0.00,,,0.00,WUHU216WMR968SP,2013-03-12 05:40:00,
2013-03-12 01:45:00,39.6,27.3,18.26,SE,139,0.0,0.0,61,0.00,,,0.00,WUHU216WMR968SP,2013-03-12 05:45:00,
2013-03-12 01:50:00,39.6,26.9,18.26,SE,140,0.0,0.0,60,0.00,,,0.00,WUHU216WMR968SP,2013-03-12 05:50:00,
2013-03-12 01:55:00,39.6,26.9,18.26,SE,142,0.0,0.0,60,0.00,,,0.00,WUHU216WMR968SP,2013-03-12 05:55:00,
2013-03-12 02:00:00,39.4,27.1,18.26,SE,140,0.0,0.0,61,0.00,,,0.00,WUHU216WMR968SP,2013-03-12 06:00:00,
2013-03-12 02:05:00,39.2,26.9,18.26,SE,140,0.0,0.0,61,0.00,,,0.00,WUHU216WMR968SP,2013-03-12 06:05:00,
2013-03-12 02:10:00,39.0,26.8,18.26,SE,140,0.0,0.0,61,0.00,,,0.00,WUHU216WMR968SP,2013-03-12 06:10:00,
2013-03-12 02:15:00,38.8,26.2,18.26,SE,140,0.0,0.0,60,0.00,,,0.00,WUHU216WMR968SP,2013-03-12 06:15:00,
2013-03-12 02:20:00,38.7,26.1,18.26,SE,140,0.0,0.0,60,0.00,,,0.00,WUHU216WMR968SP,2013-03-12 06:20:00,
2013-03-12 02:25:00,38.8,26.6,18.26,SE,140,0.0,0.0,61,0.00,,,0.00,WUHU216WMR968SP,2013-03-12 06:25:00,
2013-03-12 02:30:00,39.0,27.2,18.26,NE,53,0.0,0.0,62,0.00,,,0.00,WUHU216WMR968SP,2013-03-12 06:30:00,
2013-03-12 02:35:00,39.4,27.9,18.26,ENE,72,0.0,0.0,63,0.00,,,0.00,WUHU216WMR968SP,2013-03-12 06:35:00,
2013-03-12 02:40:00,39.9,28.8,18.26,ENE,72,0.0,0.0,64,0.00,,,0.00,WUHU216WMR968SP,2013-03-12 06:40:00,
2013-03-12 02:45:00,40.3,29.2,18.26,East,96,0.0,0.0,64,0.00,,,0.00,WUHU216WMR968SP,2013-03-12 06:45:00,
2013-03-12 02:50:00,40.6,29.5,18.26,NNW,335,0.0,0.0,64,0.00,,,0.00,WUHU216WMR968SP,2013-03-12 06:50:00,
2013-03-12 02:55:00,40.6,29.1,18.26,SE,128,0.0,0.0,63,0.00,,,0.00,WUHU216WMR968SP,2013-03-12 06:55:00,
2013-03-12 03:00:00,40.5,28.6,18.26,SE,134,0.0,0.0,62,0.00,,,0.00,WUHU216WMR968SP,2013-03-12 07:00:00,
2013-03-12 03:05:00,39.9,27.6,18.26,SE,144,0.0,0.0,61,0.00,,,0.00,WUHU216WMR968SP,2013-03-12 07:05:00,
2013-03-12 03:10:00,39.6,27.3,18.26,SE,144,0.0,0.0,61,0.00,,,0.00,WUHU216WMR968SP,2013-03-12 07:10:00,
2013-03-12 03:15:00,39.4,27.5,18.26,SE,145,0.0,0.0,62,0.00,,,0.00,WUHU216WMR968SP,2013-03-12 07:15:00,
2013-03-12 03:20:00,39.2,27.3,18.26,SSE,152,0.0,0.0,62,0.00,,,0.00,WUHU216WMR968SP,2013-03-12 07:20:00,
2013-03-12 03:25:00,38.8,27.4,18.26,SE,144,0.0,0.0,63,0.00,,,0.00,WUHU216WMR968SP,2013-03-12 07:25:00,
2013-03-12 03:30:00,38.8,28.1,18.26,SE,136,0.0,0.0,65,0.00,,,0.00,WUHU216WMR968SP,2013-03-12 07:30:00,
2013-03-12 03:35:00,38.8,28.1,18.26,NNE,12,0.0,0.0,65,0.00,,,0.00,WUHU216WMR968SP,2013-03-12 07:35:00,
2013-03-12 03:40:00,38.7,28.0,18.26,SE,137,0.0,0.0,65,0.00,,,0.00,WUHU216WMR968SP,2013-03-12 07:40:00,
2013-03-12 03:45:00,38.7,28.0,18.26,SE,136,0.0,0.0,65,0.00,,,0.00,WUHU216WMR968SP,2013-03-12 07:45:00,
2013-03-12 03:50:00,38.8,28.5,18.26,SE,139,0.0,0.0,66,0.00,,,0.00,WUHU216WMR968SP,2013-03-12 07:50:00,
2013-03-12 03:55:00,39.2,28.9,18.26,SE,139,0.0,0.0,66,0.00,,,0.00,WUHU216WMR968SP,2013-03-12 07:55:00,
2013-03-12 04:00:00,39.4,29.1,18.26,SE,139,0.0,0.0,66,0.00,,,0.00,WUHU216WMR968SP,2013-03-12 08:00:00,
2013-03-12 04:05:00,39.4,28.7,18.26,SE,139,0.0,0.0,65,0.00,,,0.00,WUHU216WMR968SP,2013-03-12 08:05:00,
2013-03-12 04:10:00,39.4,29.1,18.26,SE,139,0.0,0.0,66,0.00,,,0.00,WUHU216WMR968SP,2013-03-12 08:10:00,
2013-03-12 04:15:00,39.2,28.9,18.26,SE,139,0.0,0.0,66,0.00,,,0.00,WUHU216WMR968SP,2013-03-12 08:15:00,
2013-03-12 04:20:00,39.0,28.7,18.26,SSE,147,0.0,0.0,66,0.00,,,0.00,WUHU216WMR968SP,2013-03-12 08:20:00,
2013-03-12 04:25:00,39.0,28.7,18.26,SSE,147,0.0,0.0,66,0.00,,,0.00,WUHU216WMR968SP,2013-03-12 08:25:00,
2013-03-12 04:30:00,39.2,28.5,18.26,SSE,147,0.0,0.0,65,0.00,,,0.00,WUHU216WMR968SP,2013-03-12 08:30:00,
2013-03-12 04:35:00,39.2,28.9,18.26,SSE,147,0.0,0.0,66,0.00,,,0.00,WUHU216WMR968SP,2013-03-12 08:35:00,
2013-03-12 04:40:00,39.2,28.9,18.26,SSE,147,0.0,0.0,66,0.00,,,0.00,WUHU216WMR968SP,2013-03-12 08:40:00,
2013-03-12 04:45:00,39.2,28.9,18.26,SSE,147,0.0,0.0,66,0.00,,,0.00,WUHU216WMR968SP,2013-03-12 08:45:00,
2013-03-12 04:50:00,39.2,28.9,18.26,SSE,147,0.0,0.0,66,0.00,,,0.00,WUHU216WMR968SP,2013-03-12 08:50:00,
2013-03-12 04:55:00,39.2,28.9,18.26,SSE,147,0.0,0.0,66,0.00,,,0.00,WUHU216WMR968SP,2013-03-12 08:55:00,
2013-03-12 05:00:00,39.2,28.9,18.26,SSE,147,0.0,0.0,66,0.00,,,0.00,WUHU216WMR968SP,2013-03-12 09:00:00,
2013-03-12 05:05:00,39.0,29.0,18.26,SSE,147,0.0,0.0,67,0.00,,,0.00,WUHU216WMR968SP,2013-03-12 09:05:00,
2013-03-12 05:10:00,38.8,28.9,18.26,SSE,147,0.0,0.0,67,0.00,,,0.00,WUHU216WMR968SP,2013-03-12 09:10:00,
2013-03-12 05:15:00,38.8,28.5,18.26,SSE,147,0.0,0.0,66,0.00,,,0.00,WUHU216WMR968SP,2013-03-12 09:15:00,
2013-03-12 05:20:00,38.7,28.4,18.26,SSE,147,0.0,0.0,66,0.00,,,0.00,WUHU216WMR968SP,2013-03-12 09:20:00,
2013-03-12 05:25:00,38.5,28.2,18.26,SSE,147,0.0,0.0,66,0.00,,,0.00,WUHU216WMR968SP,2013-03-12 09:25:00,
2013-03-12 05:30:00,38.5,28.6,18.26,SSE,147,0.0,0.0,67,0.00,,,0.00,WUHU216WMR968SP,2013-03-12 09:30:00,
2013-03-12 05:35:00,38.7,28.8,18.26,SSE,147,0.0,0.0,67,0.00,,,0.00,WUHU216WMR968SP,2013-03-12 09:35:00,
2013-03-12 05:40:00,38.8,28.9,18.26,SSE,147,0.0,0.0,67,0.00,,,0.00,WUHU216WMR968SP,2013-03-12 09:40:00,
2013-03-12 05:45:00,38.8,28.9,18.26,SSE,147,0.0,0.0,67,0.00,,,0.00,WUHU216WMR968SP,2013-03-12 09:45:00,
2013-03-12 05:50:00,39.0,29.4,18.26,SSE,147,0.0,0.0,68,0.00,,,0.00,WUHU216WMR968SP,2013-03-12 09:50:00,
2013-03-12 05:55:00,38.8,29.2,18.26,SSE,147,0.0,0.0,68,0.00,,,0.00,WUHU216WMR968SP,2013-03-12 09:55:00,
2013-03-12 06:00:00,38.8,29.2,18.26,SSE,147,0.0,0.0,68,0.00,,,0.00,WUHU216WMR968SP,2013-03-12 10:00:00,
2013-03-12 06:05:00,38.7,29.5,18.26,SSE,147,0.0,0.0,69,0.00,,,0.00,WUHU216WMR968SP,2013-03-12 10:05:00,
2013-03-12 06:10:00,38.3,29.1,18.26,SSE,147,0.0,0.0,69,0.00,,,0.00,WUHU216WMR968SP,2013-03-12 10:10:00,
2013-03-12 06:15:00,38.3,29.1,18.26,SSE,147,0.0,0.0,69,0.00,,,0.00,WUHU216WMR968SP,2013-03-12 10:15:00,
2013-03-12 06:20:00,38.5,29.3,18.26,South,190,0.0,0.0,69,0.00,,,0.00,WUHU216WMR968SP,2013-03-12 10:20:00,
2013-03-12 06:25:00,38.7,29.5,18.26,South,190,0.0,0.0,69,0.00,,,0.00,WUHU216WMR968SP,2013-03-12 10:25:00,
2013-03-12 06:30:00,38.5,29.3,18.26,South,190,0.0,0.0,69,0.00,,,0.00,WUHU216WMR968SP,2013-03-12 10:30:00,
2013-03-12 06:35:00,38.3,29.1,18.26,South,190,0.0,0.0,69,0.00,,,0.00,WUHU216WMR968SP,2013-03-12 10:35:00,
2013-03-12 06:40:00,38.1,28.9,18.26,South,190,0.0,0.0,69,0.00,,,0.00,WUHU216WMR968SP,2013-03-12 10:40:00,
2013-03-12 06:45:00,38.1,28.9,18.26,South,190,0.0,0.0,69,0.00,,,0.00,WUHU216WMR968SP,2013-03-12 10:45:00,
2013-03-12 06:50:00,38.1,28.9,18.26,South,190,0.0,0.0,69,0.00,,,0.00,WUHU216WMR968SP,2013-03-12 10:50:00,
2013-03-12 06:55:00,38.1,28.9,18.26,South,190,0.0,0.0,69,0.00,,,0.00,WUHU216WMR968SP,2013-03-12 10:55:00,
2013-03-12 07:00:00,38.1,28.9,18.26,South,190,0.0,0.0,69,0.00,,,0.00,WUHU216WMR968SP,2013-03-12 11:00:00,
2013-03-12 07:05:00,38.3,29.1,18.26,South,190,0.0,0.0,69,0.00,,,0.00,WUHU216WMR968SP,2013-03-12 11:05:00,
2013-03-12 07:10:00,38.5,29.3,18.26,South,190,0.0,0.0,69,0.00,,,0.00,WUHU216WMR968SP,2013-03-12 11:10:00,
2013-03-12 07:15:00,38.7,29.8,18.26,South,190,0.0,0.0,70,0.00,,,0.00,WUHU216WMR968SP,2013-03-12 11:15:00,
2013-03-12 07:20:00,38.7,29.8,18.26,South,190,0.0,0.0,70,0.00,,,0.00,WUHU216WMR968SP,2013-03-12 11:20:00,
2013-03-12 07:25:00,38.1,29.3,18.26,SSW,205,0.0,0.0,70,0.00,,,0.00,WUHU216WMR968SP,2013-03-12 11:25:00,
2013-03-12 07:30:00,38.1,29.3,18.26,SSW,205,0.0,0.0,70,0.00,,,0.00,WUHU216WMR968SP,2013-03-12 11:30:00,
2013-03-12 07:35:00,38.1,29.3,18.26,SSW,205,0.0,0.0,70,0.00,,,0.00,WUHU216WMR968SP,2013-03-12 11:35:00,
2013-03-12 07:40:00,38.1,29.3,18.26,SSW,205,0.0,0.0,70,0.00,,,0.00,WUHU216WMR968SP,2013-03-12 11:40:00,
2013-03-12 07:45:00,38.1,29.3,18.26,SSW,205,0.0,0.0,70,0.00,,,0.00,WUHU216WMR968SP,2013-03-12 11:45:00,
2013-03-12 07:50:00,38.1,29.3,18.26,SSW,205,0.0,0.0,70,0.00,,,0.00,WUHU216WMR968SP,2013-03-12 11:50:00,
2013-03-12 07:55:00,38.1,29.3,18.26,SSW,205,0.0,0.0,70,0.00,,,0.00,WUHU216WMR968SP,2013-03-12 11:55:00,
2013-03-12 08:00:00,38.3,29.4,18.26,SSW,205,0.0,0.0,70,0.00,,,0.00,WUHU216WMR968SP,2013-03-12 12:00:00,
2013-03-12 08:05:00,38.1,29.3,18.26,SSW,205,0.0,0.0,70,0.00,,,0.00,WUHU216WMR968SP,2013-03-12 12:05:00,
2013-03-12 08:10:00,37.9,29.1,18.26,SSW,205,0.0,0.0,70,0.00,,,0.00,WUHU216WMR968SP,2013-03-12 12:10:00,
2013-03-12 08:15:00,38.1,29.3,18.26,SSW,205,0.0,0.0,70,0.00,,,0.00,WUHU216WMR968SP,2013-03-12 12:15:00,
2013-03-12 08:20:00,38.1,29.3,18.26,SSW,205,0.0,0.0,70,0.00,,,0.00,WUHU216WMR968SP,2013-03-12 12:20:00,
2013-03-12 08:25:00,38.1,29.3,18.26,SSW,205,0.0,0.0,70,0.00,,,0.00,WUHU216WMR968SP,2013-03-12 12:25:00,
2013-03-12 08:30:00,38.1,29.3,18.26,SSW,205,0.0,0.0,70,0.00,,,0.00,WUHU216WMR968SP,2013-03-12 12:30:00,
2013-03-12 08:35:00,38.3,29.4,18.26,SSW,205,0.0,0.0,70,0.00,,,0.00,WUHU216WMR968SP,2013-03-12 12:35:00,
2013-03-12 08:40:00,38.5,30.0,18.26,SSW,205,0.0,0.0,71,0.00,,,0.00,WUHU216WMR968SP,2013-03-12 12:40:00,
2013-03-12 08:45:00,38.5,29.6,18.26,SSW,205,0.0,0.0,70,0.00,,,0.00,WUHU216WMR968SP,2013-03-12 12:45:00,
2013-03-12 08:50:00,38.5,29.6,18.26,SSW,205,0.0,0.0,70,0.00,,,0.00,WUHU216WMR968SP,2013-03-12 12:50:00,
2013-03-12 08:55:00,38.7,30.2,18.26,SSW,205,0.0,0.0,71,0.00,,,0.00,WUHU216WMR968SP,2013-03-12 12:55:00,
2013-03-12 09:00:00,38.7,30.2,18.26,SSW,205,0.0,0.0,71,0.00,,,0.00,WUHU216WMR968SP,2013-03-12 13:00:00,
2013-03-12 09:05:00,38.5,30.0,18.26,SSW,205,0.0,0.0,71,0.00,,,0.00,WUHU216WMR968SP,2013-03-12 13:05:00,
2013-03-12 09:10:00,38.5,30.0,18.26,SSW,205,0.0,0.0,71,0.00,,,0.00,WUHU216WMR968SP,2013-03-12 13:10:00,
2013-03-12 09:15:00,38.5,30.0,18.26,SSW,205,0.0,0.0,71,0.00,,,0.00,WUHU216WMR968SP,2013-03-12 13:15:00,
2013-03-12 09:20:00,38.7,30.2,18.26,SSW,198,0.0,0.0,71,0.00,,,0.00,WUHU216WMR968SP,2013-03-12 13:20:00,
2013-03-12 09:25:00,38.8,30.3,18.26,SSW,198,0.0,0.0,71,0.00,,,0.00,WUHU216WMR968SP,2013-03-12 13:25:00,
2013-03-12 09:30:00,38.8,30.3,18.26,SW,225,0.0,0.0,71,0.00,,,0.00,WUHU216WMR968SP,2013-03-12 13:30:00,
2013-03-12 09:35:00,38.8,30.3,18.26,SW,225,0.0,0.0,71,0.00,,,0.00,WUHU216WMR968SP,2013-03-12 13:35:00,
2013-03-12 09:40:00,39.2,30.7,18.26,SW,225,0.0,0.0,71,0.00,,,0.00,WUHU216WMR968SP,2013-03-12 13:40:00,
2013-03-12 09:45:00,39.2,30.7,18.26,SW,225,0.0,0.0,71,0.00,,,0.00,WUHU216WMR968SP,2013-03-12 13:45:00,
2013-03-12 09:50:00,39.2,30.7,18.26,SW,225,0.0,0.0,71,0.00,,,0.00,WUHU216WMR968SP,2013-03-12 13:50:00,
2013-03-12 09:55:00,39.4,30.9,18.26,SW,225,0.0,0.0,71,0.00,,,0.00,WUHU216WMR968SP,2013-03-12 13:55:00,
2013-03-12 10:00:00,39.4,30.9,18.26,SW,225,0.0,0.0,71,0.00,,,0.00,WUHU216WMR968SP,2013-03-12 14:00:00,
2013-03-12 10:05:00,39.4,30.9,18.26,SW,225,0.0,0.0,71,0.00,,,0.00,WUHU216WMR968SP,2013-03-12 14:05:00,
2013-03-12 10:10:00,39.6,31.0,18.26,SSW,210,0.0,0.0,71,0.00,,,0.00,WUHU216WMR968SP,2013-03-12 14:10:00,
2013-03-12 10:15:00,39.7,31.1,18.26,SSW,210,0.0,0.0,71,0.00,,,0.00,WUHU216WMR968SP,2013-03-12 14:15:00,
2013-03-12 10:20:00,39.9,31.3,18.26,SSW,210,0.0,0.0,71,0.00,,,0.00,WUHU216WMR968SP,2013-03-12 14:20:00,
2013-03-12 10:25:00,39.9,31.3,18.26,SSW,210,0.0,0.0,71,0.00,,,0.00,WUHU216WMR968SP,2013-03-12 14:25:00,
2013-03-12 10:30:00,39.7,31.1,18.26,SSW,210,0.0,0.0,71,0.00,,,0.00,WUHU216WMR968SP,2013-03-12 14:30:00,
2013-03-12 10:35:00,39.9,31.3,18.26,SSW,210,0.0,0.0,71,0.00,,,0.00,WUHU216WMR968SP,2013-03-12 14:35:00,
2013-03-12 10:40:00,39.9,31.3,18.26,SSW,210,0.0,0.0,71,0.00,,,0.00,WUHU216WMR968SP,2013-03-12 14:40:00,
2013-03-12 10:45:00,40.3,32.0,18.26,SSW,210,0.0,0.0,71,0.00,,,0.00,WUHU216WMR968SP,2013-03-12 14:45:00,
2013-03-12 10:50:00,40.5,32.0,18.26,SSW,210,0.0,0.0,71,0.00,,,0.00,WUHU216WMR968SP,2013-03-12 14:50:00,
2013-03-12 10:55:00,40.6,32.0,18.26,SSW,210,0.0,0.0,71,0.00,,,0.00,WUHU216WMR968SP,2013-03-12 14:55:00,
2013-03-12 11:00:00,41.0,32.0,18.26,SSW,210,0.0,0.0,71,0.00,,,0.00,WUHU216WMR968SP,2013-03-12 15:00:00,
2013-03-12 11:05:00,41.2,32.0,18.26,SSW,210,0.0,0.0,71,0.00,,,0.00,WUHU216WMR968SP,2013-03-12 15:05:00,
2013-03-12 11:10:00,41.2,32.0,18.26,SSW,210,0.0,0.0,71,0.00,,,0.00,WUHU216WMR968SP,2013-03-12 15:10:00,
2013-03-12 11:15:00,41.2,32.0,18.26,SSW,210,0.0,0.0,71,0.00,,,0.00,WUHU216WMR968SP,2013-03-12 15:15:00,
2013-03-12 11:20:00,41.0,32.0,18.26,SSW,210,0.0,0.0,71,0.00,,,0.00,WUHU216WMR968SP,2013-03-12 15:20:00,
2013-03-12 11:25:00,41.2,32.0,18.26,SSW,210,0.0,0.0,71,0.00,,,0.00,WUHU216WMR968SP,2013-03-12 15:25:00,
2013-03-12 11:30:00,41.4,32.0,18.26,SSW,210,0.0,0.0,71,0.00,,,0.00,WUHU216WMR968SP,2013-03-12 15:30:00,
2013-03-12 11:35:00,41.5,32.0,18.26,SSW,210,0.0,0.0,71,0.00,,,0.00,WUHU216WMR968SP,2013-03-12 15:35:00,
2013-03-12 11:40:00,41.7,32.0,18.26,SSW,210,0.0,0.0,71,0.00,,,0.00,WUHU216WMR968SP,2013-03-12 15:40:00,
2013-03-12 11:45:00,41.7,32.0,18.26,SSW,210,0.0,0.0,71,0.00,,,0.00,WUHU216WMR968SP,2013-03-12 15:45:00,
2013-03-12 11:50:00,41.9,33.8,18.26,SSW,210,0.0,0.0,71,0.00,,,0.00,WUHU216WMR968SP,2013-03-12 15:50:00,
2013-03-12 11:55:00,41.9,33.8,18.26,SSW,210,0.0,0.0,71,0.00,,,0.00,WUHU216WMR968SP,2013-03-12 15:55:00,
2013-03-12 12:00:00,42.1,33.8,18.26,SSW,210,0.0,0.0,71,0.00,,,0.00,WUHU216WMR968SP,2013-03-12 16:00:00,
2013-03-12 12:05:00,42.4,33.8,18.26,SSW,210,0.0,0.0,71,0.00,,,0.00,WUHU216WMR968SP,2013-03-12 16:05:00,
2013-03-12 12:10:00,42.8,33.8,18.26,SSW,210,0.0,0.0,71,0.00,,,0.00,WUHU216WMR968SP,2013-03-12 16:10:00,
2013-03-12 12:15:00,43.0,33.8,18.26,SSW,210,0.0,0.0,71,0.00,,,0.00,WUHU216WMR968SP,2013-03-12 16:15:00,
2013-03-12 12:20:00,43.2,33.8,18.26,NNW,334,0.0,0.0,71,0.00,,,0.00,WUHU216WMR968SP,2013-03-12 16:20:00,
2013-03-12 12:25:00,43.3,33.8,18.26,NNW,334,0.0,0.0,71,0.00,,,0.00,WUHU216WMR968SP,2013-03-12 16:25:00,
2013-03-12 12:30:00,43.5,33.8,18.26,NNW,334,0.0,0.0,71,0.00,,,0.00,WUHU216WMR968SP,2013-03-12 16:30:00,
2013-03-12 12:35:00,44.1,35.6,18.26,NNW,334,0.0,0.0,71,0.00,,,0.00,WUHU216WMR968SP,2013-03-12 16:35:00,
2013-03-12 12:40:00,44.2,35.6,18.26,NNW,334,0.0,0.0,71,0.00,,,0.00,WUHU216WMR968SP,2013-03-12 16:40:00,
2013-03-12 12:45:00,44.2,35.6,18.26,NNW,334,0.0,0.0,71,0.00,,,0.00,WUHU216WMR968SP,2013-03-12 16:45:00,
2013-03-12 12:50:00,44.6,35.6,18.26,NNW,334,0.0,0.0,71,0.00,,,0.00,WUHU216WMR968SP,2013-03-12 16:50:00,
2013-03-12 12:55:00,44.6,35.6,18.26,NNW,334,0.0,0.0,71,0.00,,,0.00,WUHU216WMR968SP,2013-03-12 16:55:00,
2013-03-12 13:00:00,44.6,35.6,18.26,NNW,334,0.0,0.0,71,0.00,,,0.00,WUHU216WMR968SP,2013-03-12 17:00:00,
2013-03-12 13:05:00,44.4,35.6,18.26,NNW,334,0.0,0.0,72,0.00,,,0.00,WUHU216WMR968SP,2013-03-12 17:05:00,
2013-03-12 13:11:00,44.4,35.6,18.26,NNW,334,0.0,0.0,71,0.00,,,0.00,WUHU216WMR968SP,2013-03-12 17:11:00,
2013-03-12 13:16:00,44.2,35.6,18.26,NNW,334,0.0,0.0,71,0.00,,,0.00,WUHU216WMR968SP,2013-03-12 17:16:00,
2013-03-12 13:21:00,44.2,35.6,18.26,NNW,334,0.0,0.0,71,0.00,,,0.00,WUHU216WMR968SP,2013-03-12 17:21:00,
2013-03-12 13:25:00,44.2,35.6,18.26,NNW,334,0.0,0.0,71,0.00,,,0.00,WUHU216WMR968SP,2013-03-12 17:25:00,
2013-03-12 13:30:00,43.7,35.6,18.26,NNW,334,0.0,0.0,71,0.00,,,0.00,WUHU216WMR968SP,2013-03-12 17:30:00,
2013-03-12 13:35:00,43.3,33.8,18.26,NNW,334,0.0,0.0,71,0.00,,,0.00,WUHU216WMR968SP,2013-03-12 17:35:00,
2013-03-12 13:40:00,43.3,33.8,18.26,NNW,334,0.0,0.0,71,0.00,,,0.00,WUHU216WMR968SP,2013-03-12 17:40:00,
2013-03-12 13:45:00,43.3,33.8,18.26,NNW,334,0.0,0.0,71,0.00,,,0.00,WUHU216WMR968SP,2013-03-12 17:45:00,
2013-03-12 13:50:00,43.0,33.8,18.26,NNW,334,0.0,0.0,71,0.00,,,0.00,WUHU216WMR968SP,2013-03-12 17:50:00,
2013-03-12 13:56:00,43.0,33.8,18.26,NNW,334,0.0,0.0,71,0.00,,,0.00,WUHU216WMR968SP,2013-03-12 17:56:00,
2013-03-12 14:01:00,43.2,33.8,18.26,NNW,334,0.0,0.0,71,0.00,,,0.00,WUHU216WMR968SP,2013-03-12 18:01:00,
2013-03-12 14:06:00,43.3,33.8,18.26,NNW,334,0.0,0.0,71,0.00,,,0.00,WUHU216WMR968SP,2013-03-12 18:06:00,
2013-03-12 14:10:00,43.5,33.8,18.26,NNW,334,0.0,0.0,71,0.00,,,0.00,WUHU216WMR968SP,2013-03-12 18:10:00,
2013-03-12 14:15:00,43.9,35.6,18.26,NNW,334,0.0,0.0,71,0.00,,,0.00,WUHU216WMR968SP,2013-03-12 18:15:00,
2013-03-12 14:20:00,44.1,35.6,18.26,NNW,334,0.0,0.0,71,0.00,,,0.00,WUHU216WMR968SP,2013-03-12 18:20:00,
2013-03-12 14:25:00,44.4,35.6,18.26,NNW,334,0.0,0.0,72,0.00,,,0.00,WUHU216WMR968SP,2013-03-12 18:25:00,
2013-03-12 14:30:00,44.6,35.6,29.87,NNW,334,0.0,0.0,71,0.00,,,0.00,WUHU216WMR968SP,2013-03-12 18:30:00,
2013-03-12 14:35:00,44.8,35.6,29.87,NNW,334,0.0,0.0,71,0.00,,,0.00,WUHU216WMR968SP,2013-03-12 18:35:00,
2013-03-12 14:40:00,45.0,35.6,29.87,NNW,334,0.0,0.0,71,0.00,,,0.00,WUHU216WMR968SP,2013-03-12 18:40:00,
2013-03-12 14:45:00,44.6,35.6,29.87,NNW,334,0.0,0.0,71,0.00,,,0.00,WUHU216WMR968SP,2013-03-12 18:45:00,
2013-03-12 14:51:00,44.2,35.6,29.87,NNW,334,0.0,0.0,71,0.00,,,0.00,WUHU216WMR968SP,2013-03-12 18:51:00,
2013-03-12 14:56:00,44.1,35.6,29.87,NNW,334,0.0,0.0,71,0.00,,,0.00,WUHU216WMR968SP,2013-03-12 18:56:00,
2013-03-12 15:00:00,43.5,33.8,29.87,NNW,334,0.0,0.0,71,0.00,,,0.00,WUHU216WMR968SP,2013-03-12 19:00:00,
2013-03-12 15:05:00,43.3,33.8,29.87,NNW,334,0.0,0.0,71,0.00,,,0.00,WUHU216WMR968SP,2013-03-12 19:05:00,
2013-03-12 15:10:00,43.2,33.8,29.87,NNW,334,0.0,0.0,71,0.00,,,0.00,WUHU216WMR968SP,2013-03-12 19:10:00,
2013-03-12 15:15:00,43.3,33.8,29.87,NNW,334,0.0,0.0,71,0.00,,,0.00,WUHU216WMR968SP,2013-03-12 19:15:00,
2013-03-12 15:20:00,43.0,33.8,29.87,NNW,334,0.0,0.0,71,0.00,,,0.00,WUHU216WMR968SP,2013-03-12 19:20:00,
2013-03-12 15:25:00,42.8,33.8,29.87,NNW,334,0.0,0.0,71,0.00,,,0.00,WUHU216WMR968SP,2013-03-12 19:25:00,
2013-03-12 15:30:00,43.0,33.8,29.87,NNW,334,0.0,0.0,71,0.00,,,0.00,WUHU216WMR968SP,2013-03-12 19:30:00,
2013-03-12 15:35:00,43.0,33.8,29.87,NNW,334,0.0,0.0,71,0.00,,,0.00,WUHU216WMR968SP,2013-03-12 19:35:00,
2013-03-12 15:40:00,42.8,33.8,29.87,NNW,334,0.0,0.0,71,0.00,,,0.00,WUHU216WMR968SP,2013-03-12 19:40:00,
2013-03-12 15:45:00,42.6,33.8,29.87,NNW,334,0.0,0.0,72,0.00,,,0.00,WUHU216WMR968SP,2013-03-12 19:45:00,
2013-03-12 15:50:00,42.8,33.8,29.87,NNW,334,0.0,0.0,71,0.00,,,0.00,WUHU216WMR968SP,2013-03-12 19:50:00,
2013-03-12 15:55:00,42.8,33.8,29.87,NNW,334,0.0,0.0,71,0.00,,,0.00,WUHU216WMR968SP,2013-03-12 19:55:00,
2013-03-12 16:00:00,42.6,33.8,29.87,NNW,334,0.0,0.0,72,0.00,,,0.00,WUHU216WMR968SP,2013-03-12 20:00:00,
2013-03-12 16:05:00,42.3,33.8,29.87,NNW,334,0.0,0.0,72,0.00,,,0.00,WUHU216WMR968SP,2013-03-12 20:05:00,
2013-03-12 16:10:00,42.3,33.8,29.87,NNW,334,0.0,0.0,72,0.00,,,0.00,WUHU216WMR968SP,2013-03-12 20:10:00,
2013-03-12 16:15:00,42.4,33.8,29.87,NNW,334,0.0,0.0,72,0.00,,,0.00,WUHU216WMR968SP,2013-03-12 20:15:00,
2013-03-12 16:20:00,42.3,33.8,29.87,NNW,334,0.0,0.0,72,0.00,,,0.00,WUHU216WMR968SP,2013-03-12 20:20:00,
2013-03-12 16:25:00,42.3,33.8,29.87,NNW,334,0.0,0.0,72,0.00,,,0.00,WUHU216WMR968SP,2013-03-12 20:25:00,
2013-03-12 16:30:00,42.4,33.8,29.87,NNW,334,0.0,0.0,72,0.00,,,0.00,WUHU216WMR968SP,2013-03-12 20:30:00,
2013-03-12 16:35:00,42.4,33.8,29.87,NNW,334,0.0,0.0,72,0.00,,,0.00,WUHU216WMR968SP,2013-03-12 20:35:00,
2013-03-12 16:40:00,42.6,33.8,29.87,NNW,334,0.0,0.0,72,0.00,,,0.00,WUHU216WMR968SP,2013-03-12 20:40:00,
2013-03-12 16:45:00,42.8,33.8,29.87,NNW,334,0.0,0.0,71,0.00,,,0.00,WUHU216WMR968SP,2013-03-12 20:45:00,
2013-03-12 16:50:00,43.0,33.8,29.87,NNW,334,0.0,0.0,71,0.00,,,0.00,WUHU216WMR968SP,2013-03-12 20:50:00,
2013-03-12 16:55:00,44.1,35.6,29.87,NNW,334,0.0,0.0,71,0.00,,,0.00,WUHU216WMR968SP,2013-03-12 20:55:00,
2013-03-12 17:00:00,44.2,35.6,29.87,NNW,334,0.0,0.0,72,0.00,,,0.00,WUHU216WMR968SP,2013-03-12 21:00:00,
2013-03-12 17:05:00,43.9,35.6,29.87,NNW,334,0.0,0.0,72,0.00,,,0.00,WUHU216WMR968SP,2013-03-12 21:05:00,
2013-03-12 17:10:00,44.2,35.6,29.87,NNW,334,0.0,0.0,72,0.00,,,0.00,WUHU216WMR968SP,2013-03-12 21:10:00,
2013-03-12 17:15:00,45.1,35.6,29.87,NNW,334,0.0,0.0,71,0.00,,,0.00,WUHU216WMR968SP,2013-03-12 21:15:00,
2013-03-12 17:20:00,45.7,37.4,29.87,NNW,334,0.0,0.0,71,0.00,,,0.00,WUHU216WMR968SP,2013-03-12 21:20:00,
2013-03-12 17:25:00,46.0,37.4,29.87,NNW,334,0.0,0.0,71,0.00,,,0.00,WUHU216WMR968SP,2013-03-12 21:25:00,
2013-03-12 17:30:00,46.4,37.4,29.87,NNW,334,0.0,0.0,71,0.00,,,0.00,WUHU216WMR968SP,2013-03-12 21:30:00,
2013-03-12 17:35:00,46.8,37.4,29.87,NNW,334,0.0,0.0,71,0.00,,,0.00,WUHU216WMR968SP,2013-03-12 21:35:00,
2013-03-12 17:40:00,46.8,37.4,29.87,NNW,334,0.0,0.0,71,0.00,,,0.00,WUHU216WMR968SP,2013-03-12 21:40:00,
2013-03-12 17:45:00,46.6,37.4,29.87,SE,146,0.0,0.0,71,0.00,,,0.00,WUHU216WMR968SP,2013-03-12 21:45:00,
2013-03-12 17:50:00,46.6,37.4,29.87,SE,133,0.0,0.0,71,0.00,,,0.00,WUHU216WMR968SP,2013-03-12 21:50:00,
2013-03-12 17:55:00,46.6,37.4,29.87,SE,133,0.0,0.0,71,0.00,,,0.00,WUHU216WMR968SP,2013-03-12 21:55:00,
2013-03-12 18:00:00,46.8,37.4,29.87,SE,133,0.0,0.0,71,0.00,,,0.00,WUHU216WMR968SP,2013-03-12 22:00:00,
2013-03-12 18:05:00,46.8,37.4,29.87,SE,133,0.0,0.0,71,0.00,,,0.00,WUHU216WMR968SP,2013-03-12 22:05:00,
2013-03-12 18:10:00,46.9,37.4,29.87,SE,133,0.0,0.0,71,0.00,,,0.00,WUHU216WMR968SP,2013-03-12 22:10:00,
2013-03-12 18:15:00,46.8,37.4,29.87,SE,133,0.0,0.0,71,0.00,,,0.00,WUHU216WMR968SP,2013-03-12 22:15:00,
2013-03-12 18:20:00,46.6,37.4,29.87,SE,133,0.0,0.0,71,0.00,,,0.00,WUHU216WMR968SP,2013-03-12 22:20:00,
2013-03-12 18:25:00,46.6,37.4,29.87,SE,133,0.0,0.0,71,0.00,,,0.00,WUHU216WMR968SP,2013-03-12 22:25:00,
2013-03-12 18:30:00,46.6,37.4,29.87,SE,133,0.0,0.0,71,0.00,,,0.00,WUHU216WMR968SP,2013-03-12 22:30:00,
2013-03-12 18:35:00,46.6,37.4,29.87,SE,133,0.0,0.0,71,0.00,,,0.00,WUHU216WMR968SP,2013-03-12 22:35:00,
2013-03-12 18:40:00,47.1,37.4,29.87,SE,133,0.0,0.0,71,0.00,,,0.00,WUHU216WMR968SP,2013-03-12 22:40:00,
2013-03-12 18:45:00,46.6,37.4,29.87,SE,133,0.0,0.0,71,0.00,,,0.00,WUHU216WMR968SP,2013-03-12 22:45:00,
2013-03-12 18:50:00,46.8,37.4,29.87,SE,133,0.0,0.0,71,0.00,,,0.00,WUHU216WMR968SP,2013-03-12 22:50:00,
2013-03-12 18:55:00,46.4,37.4,29.87,SE,133,0.0,0.0,71,0.00,,,0.00,WUHU216WMR968SP,2013-03-12 22:55:00,
2013-03-12 19:00:00,46.2,37.4,29.87,SE,133,0.0,0.0,71,0.00,,,0.00,WUHU216WMR968SP,2013-03-12 23:00:00,
2013-03-12 19:05:00,46.6,37.4,29.87,SE,133,0.0,0.0,71,0.00,,,0.00,WUHU216WMR968SP,2013-03-12 23:05:00,
2013-03-12 19:10:00,46.8,37.4,29.87,SE,140,0.0,0.0,71,0.00,,,0.00,WUHU216WMR968SP,2013-03-12 23:10:00,
2013-03-12 19:15:00,46.6,37.4,29.87,SE,139,0.0,0.0,71,0.00,,,0.00,WUHU216WMR968SP,2013-03-12 23:15:00,
2013-03-12 19:20:00,46.4,37.4,29.87,ESE,117,0.0,0.0,71,0.00,,,0.00,WUHU216WMR968SP,2013-03-12 23:20:00,
2013-03-12 19:25:00,46.2,37.4,29.87,ESE,121,0.0,0.0,71,0.00,,,0.00,WUHU216WMR968SP,2013-03-12 23:25:00,
2013-03-12 19:30:00,46.4,37.4,29.87,ESE,123,0.0,0.0,71,0.00,,,0.00,WUHU216WMR968SP,2013-03-12 23:30:00,
2013-03-12 19:35:00,46.2,37.4,29.87,SE,136,0.0,0.0,72,0.00,,,0.00,WUHU216WMR968SP,2013-03-12 23:35:00,
2013-03-12 19:40:00,46.2,37.4,29.87,SE,136,0.0,0.0,72,0.00,,,0.00,WUHU216WMR968SP,2013-03-12 23:40:00,
2013-03-12 19:45:00,46.0,37.4,29.87,SE,136,0.0,0.0,72,0.00,,,0.00,WUHU216WMR968SP,2013-03-12 23:45:00,
2013-03-12 19:50:00,46.2,37.4,29.87,SE,136,0.0,0.0,72,0.00,,,0.00,WUHU216WMR968SP,2013-03-12 23:50:00,
2013-03-12 19:55:00,46.2,37.4,29.87,SE,136,0.0,0.0,72,0.00,,,0.00,WUHU216WMR968SP,2013-03-12 23:55:00,
2013-03-12 20:00:00,46.8,37.4,29.87,SE,137,0.0,0.0,71,0.00,,,0.00,WUHU216WMR968SP,2013-03-13 00:00:00,
2013-03-12 20:05:00,46.4,37.4,29.87,SE,134,0.0,0.0,71,0.00,,,0.00,WUHU216WMR968SP,2013-03-13 00:05:00,
2013-03-12 20:10:00,46.2,37.4,29.87,SE,129,0.0,0.0,72,0.00,,,0.00,WUHU216WMR968SP,2013-03-13 00:10:00,
2013-03-12 20:15:00,46.2,37.4,29.87,SE,128,0.0,0.0,72,0.00,,,0.00,WUHU216WMR968SP,2013-03-13 00:15:00,
2013-03-12 20:20:00,46.4,37.4,29.87,SSE,149,0.0,0.0,71,0.00,,,0.00,WUHU216WMR968SP,2013-03-13 00:20:00,
2013-03-12 20:25:00,46.9,37.4,29.87,SE,146,0.0,0.0,71,0.00,,,0.00,WUHU216WMR968SP,2013-03-13 00:25:00,
2013-03-12 20:30:00,45.9,37.4,29.87,SE,146,0.0,0.0,72,0.00,,,0.00,WUHU216WMR968SP,2013-03-13 00:30:00,
2013-03-12 20:35:00,46.0,37.4,29.87,SSE,163,0.0,0.0,72,0.00,,,0.00,WUHU216WMR968SP,2013-03-13 00:35:00,
2013-03-12 20:40:00,46.0,37.4,29.87,SSE,165,0.0,0.0,72,0.00,,,0.00,WUHU216WMR968SP,2013-03-13 00:40:00,
2013-03-12 20:45:00,45.9,37.4,29.87,SE,140,0.0,0.0,72,0.00,,,0.00,WUHU216WMR968SP,2013-03-13 00:45:00,
2013-03-12 20:50:00,46.0,37.4,29.87,SSE,148,0.0,0.0,72,0.00,,,0.00,WUHU216WMR968SP,2013-03-13 00:50:00,
2013-03-12 20:55:00,46.2,37.4,29.87,ESE,107,0.0,0.0,72,0.00,,,0.00,WUHU216WMR968SP,2013-03-13 00:55:00,
2013-03-12 21:00:00,46.2,37.4,29.87,ESE,107,0.0,0.0,71,0.00,,,0.00,WUHU216WMR968SP,2013-03-13 01:00:00,
2013-03-12 21:05:00,46.2,37.4,29.87,ESE,105,0.0,0.0,71,0.00,,,0.00,WUHU216WMR968SP,2013-03-13 01:05:00,
2013-03-12 21:10:00,45.9,37.4,29.87,ESE,105,0.0,0.0,71,0.00,,,0.00,WUHU216WMR968SP,2013-03-13 01:10:00,
2013-03-12 21:15:00,46.2,37.4,29.87,ESE,105,0.0,0.0,71,0.00,,,0.00,WUHU216WMR968SP,2013-03-13 01:15:00,
2013-03-12 21:20:00,46.2,37.4,29.87,ESE,105,0.0,0.0,71,0.00,,,0.00,WUHU216WMR968SP,2013-03-13 01:20:00,
2013-03-12 21:25:00,46.8,37.4,29.87,ESE,105,0.0,0.0,71,0.00,,,0.00,WUHU216WMR968SP,2013-03-13 01:25:00,
2013-03-12 21:30:00,46.4,37.4,29.87,ESE,105,0.0,0.0,71,0.00,,,0.00,WUHU216WMR968SP,2013-03-13 01:30:00,
2013-03-12 21:35:00,46.0,37.4,29.87,ESE,106,0.0,0.0,71,0.00,,,0.00,WUHU216WMR968SP,2013-03-13 01:35:00,
2013-03-12 21:40:00,45.5,37.4,29.87,ESE,106,0.0,0.0,71,0.00,,,0.00,WUHU216WMR968SP,2013-03-13 01:40:00,
2013-03-12 21:45:00,45.3,35.6,29.87,ESE,106,0.0,0.0,71,0.00,,,0.00,WUHU216WMR968SP,2013-03-13 01:45:00,
2013-03-12 21:50:00,44.8,35.6,29.87,ESE,104,0.0,0.0,71,0.00,,,0.00,WUHU216WMR968SP,2013-03-13 01:50:00,
2013-03-12 21:55:00,44.2,35.6,29.87,ESE,104,0.0,0.0,72,0.00,,,0.00,WUHU216WMR968SP,2013-03-13 01:55:00,
2013-03-12 22:00:00,44.1,35.6,29.87,ESE,104,0.0,0.0,72,0.00,,,0.00,WUHU216WMR968SP,2013-03-13 02:00:00,
2013-03-12 22:05:00,43.0,33.8,29.87,NNW,341,0.0,0.0,72,0.00,,,0.00,WUHU216WMR968SP,2013-03-13 02:05:00,
2013-03-12 22:10:00,43.2,33.8,29.87,NNW,341,0.0,0.0,72,0.00,,,0.00,WUHU216WMR968SP,2013-03-13 02:10:00,
2013-03-12 22:15:00,43.2,33.8,29.87,NE,45,0.0,0.0,72,0.00,,,0.00,WUHU216WMR968SP,2013-03-13 02:15:00,
2013-03-12 22:20:00,43.3,33.8,29.87,ESE,123,0.0,0.0,72,0.00,,,0.00,WUHU216WMR968SP,2013-03-13 02:20:00,
2013-03-12 22:25:00,43.3,33.8,29.87,SE,136,0.0,0.0,72,0.00,,,0.00,WUHU216WMR968SP,2013-03-13 02:25:00,
2013-03-12 22:30:00,43.3,33.8,29.87,NW,307,0.0,0.0,72,0.00,,,0.00,WUHU216WMR968SP,2013-03-13 02:30:00,
2013-03-12 22:35:00,42.4,33.8,29.87,NW,307,0.0,0.0,72,0.00,,,0.00,WUHU216WMR968SP,2013-03-13 02:35:00,
2013-03-12 22:40:00,43.0,33.8,29.87,NW,307,0.0,0.0,72,0.00,,,0.00,WUHU216WMR968SP,2013-03-13 02:40:00,
2013-03-12 22:45:00,43.2,33.8,29.87,NW,307,0.0,0.0,72,0.00,,,0.00,WUHU216WMR968SP,2013-03-13 02:45:00,
2013-03-12 22:50:00,42.8,33.8,29.87,NW,307,0.0,0.0,72,0.00,,,0.00,WUHU216WMR968SP,2013-03-13 02:50:00,
2013-03-12 22:55:00,42.1,33.8,29.87,NW,307,0.0,0.0,72,0.00,,,0.00,WUHU216WMR968SP,2013-03-13 02:55:00,
2013-03-12 23:00:00,42.3,33.8,29.87,NW,307,0.0,0.0,72,0.00,,,0.00,WUHU216WMR968SP,2013-03-13 03:00:00,
2013-03-12 23:05:00,41.9,33.8,29.87,NW,307,0.0,0.0,72,0.00,,,0.00,WUHU216WMR968SP,2013-03-13 03:05:00,
2013-03-12 23:10:00,42.3,33.8,29.87,NW,307,0.0,0.0,72,0.00,,,0.00,WUHU216WMR968SP,2013-03-13 03:10:00,
2013-03-12 23:15:00,41.5,32.0,29.87,NW,307,0.0,0.0,72,0.00,,,0.00,WUHU216WMR968SP,2013-03-13 03:15:00,
2013-03-12 23:20:00,41.2,32.0,29.87,NW,307,0.0,0.0,72,0.00,,,0.00,WUHU216WMR968SP,2013-03-13 03:20:00,
2013-03-12 23:25:00,41.4,32.0,29.87,NW,307,0.0,0.0,72,0.00,,,0.00,WUHU216WMR968SP,2013-03-13 03:25:00,
2013-03-12 23:30:00,41.5,32.0,29.87,NW,307,0.0,0.0,72,0.00,,,0.00,WUHU216WMR968SP,2013-03-13 03:30:00,
2013-03-12 23:35:00,41.2,32.0,29.87,NW,307,0.0,0.0,72,0.00,,,0.00,WUHU216WMR968SP,2013-03-13 03:35:00,
2013-03-12 23:40:00,41.2,32.0,29.87,NW,307,0.0,0.0,72,0.00,,,0.00,WUHU216WMR968SP,2013-03-13 03:40:00,
2013-03-12 23:45:00,42.1,33.8,29.87,NW,311,0.0,0.0,72,0.00,,,0.00,WUHU216WMR968SP,2013-03-13 03:45:00,
2013-03-12 23:50:00,43.5,33.8,29.87,WNW,298,0.0,0.0,72,0.00,,,0.00,WUHU216WMR968SP,2013-03-13 03:50:00,
2013-03-12 23:55:00,43.7,35.6,29.87,WNW,301,0.0,0.0,72,0.00,,,0.00,WUHU216WMR968SP,2013-03-13 03:55:00,